• MPC Preparation (Info)

  • MPEC 2013-R24 : 2013 RW5

    The following Minor Planet Electronic Circular may be linked-to from your own Web pages, but must not otherwise be redistributed electronically.

    A form allowing access to any MPEC is at the bottom of this page.


    Read MPEC 2013-R23 Read MPEC 2013-R25


    M.P.E.C. 2013-R24                                Issued 2013 Sept. 3, 21:19 UT
    
         The Minor Planet Electronic Circulars contain information on unusual
             minor planets and routine data on comets.  They are published
       on behalf of Commission 20 of the International Astronomical Union by the
              Minor Planet Center, Smithsonian Astrophysical Observatory,
                              Cambridge, MA 02138, U.S.A.
    
                 Prepared using the Tamkin Foundation Computer Network
    
                                  MPC@CFA.HARVARD.EDU
                URL https://www.minorplanetcenter.net/    ISSN 1523-6714
    
                                       2013 RW5
    
    Observations:
         K13R05W* C2013 09 01.43462 23 42 31.224-09 54 33.73         20.7 wLER024F51
         K13R05W  C2013 09 01.44809 23 42 29.306-09 55 10.47         20.7 wLER024F51
         K13R05W  C2013 09 01.46155 23 42 27.381-09 55 47.33         20.9 wLER024F51
         K13R05W  C2013 09 01.47499 23 42 25.466-09 56 23.86         21.0 wLER024F51
         K13R05W _C2013 09 02.39572923 40 29.428-10 36 55.26         20.1 RtER024568
         K13R05W _C2013 09 02.39675123 40 29.284-10 36 57.87               tER024568
         K13R05W _C2013 09 02.39777223 40 29.145-10 37 00.62               tER024568
         K13R05W KC2013 09 03.25657023 38 43.23 -11 12 55.0          20.7 VuER024H21
         K13R05W KC2013 09 03.26083623 38 42.66 -11 13 05.6          20.6 VuER024H21
         K13R05W KC2013 09 03.26495523 38 42.12 -11 13 15.7          20.6 VuER024H21
         K13R05W KC2013 09 03.26936823 38 41.57 -11 13 26.4          20.7 VuER024H21
         K13R05W KC2013 09 03.27348723 38 41.01 -11 13 36.1          20.6 VuER024H21
    
    Observer details:
    568 Mauna Kea.  Observers R. J. Wainscoat, M. Micheli, L. Wells.  Measurers
        M. Micheli, R. J. Wainscoat.  3.6-m Canada-France-Hawaii Telescope + CCD.
    F51 Pan-STARRS 1, Haleakala.  Observers N. Primak, A. Schultz. T. Goggia,
        M. Willman.  Measurer PS1 Science Consortium.  1.8-m Ritchey-Chretien
        + CCD.
    H21 Astronomical Research Observatory, Westfield.  Observer R. Holmes.
        Measurers T. Linder, S. Foglia, L. Buzzi, T. Vorobjov.  0.61-m f/4.5
        astrograph + CCD.
    
    Orbital elements:
    2013 RW5                                                 Earth MOID = 0.0560 AU
    Epoch 2013 Nov. 4.0 TT = JDT 2456600.5                  MPC
    M  55.40639              (2000.0)            P               Q
    n   0.39992129     Peri.   95.52771     -0.33965114     +0.93652922
    a   1.8245385      Node   154.08672     -0.92234248     -0.31356068
    e   0.5665988      Incl.   11.46864     -0.18417779     -0.15682066
    P   2.46           H   22.3           G   0.15           U   6
    Residuals in seconds of arc
    130901 F51  0.0   0.0     130902 568  0.0   0.1+    130903 H21  0.1-  0.1-
    130901 F51  0.0   0.1+    130902 568  0.0   0.1+    130903 H21  0.1-  0.2-
    130901 F51  0.0   0.1-    130902 568  0.0   0.0     130903 H21  0.3+  0.1-
    130901 F51  0.0   0.0     130903 H21  0.1+  0.1+    130903 H21  0.0   0.2+
    
    Ephemeris:
    2013 RW5                 a,e,i = 1.82, 0.57, 11                  q = 0.7908
    Date    TT    R. A. (2000) Decl.     Delta      r     Elong.  Phase     V
    2013 08 04    01 55 00.1 +40 49 38   0.1265  1.0220    89.8    83.1    20.8
    ...
    2013 08 19    00 21 05.2 +05 44 27   0.1741  1.1487   138.8    35.5    20.3
    ...
    2013 08 27    23 55 36.3 -05 01 22   0.2236  1.2185   156.4    19.4    20.5
    ...
    2013 09 02    23 41 18.3 -10 19 29   0.2686  1.2711   165.7    11.3    20.7
    2013 09 03    23 39 14.2 -11 02 00   0.2767  1.2798   166.9    10.3    20.7
    2013 09 04    23 37 14.9 -11 41 55   0.2849  1.2885   167.9     9.4    20.7
    ...
    2013 09 10    23 26 56.4 -14 54 17   0.3380  1.3408   169.6     7.8    21.1
    ...
    2013 09 18    23 17 05.1 -17 33 38   0.4175  1.4098   163.3    11.8    21.9
    ...
    2013 10 03    23 08 16.6 -19 28 38   0.5918  1.5358   148.2    20.1    23.1
    
    A. U. Tomatic                (C) Copyright 2013 MPC           M.P.E.C. 2013-R24
    

    Read MPEC 2013-R23 Read MPEC 2013-R25


    MPEC number:

    Enter an MPEC number in one of the following forms:

    • 1997-B01 (the full form)
    • J97B01 (the packed version of the full form)
    • B01 (the abbreviated form)